Miscellaneous Local Product
Issued by NWS Hastings, NE

Home | Current Version | Previous Version | Graphics & Text | Print | Product List | Glossary On
Versions: 1 2 3 4 5 6 7 8 9 10 11 12 13 14 15 16 17 18 19 20 21 22 23 24 25 26 27 28 29 30 31 32 33 34 35 36 37 38 39 40 41 42 43 44 45 46 47 48 49 50
000
AXUS43 KGID 250602
MISGRI

GID CWA HOURLY WEATHER ROUNDUP
NATIONAL WEATHER SERVICE HASTINGS NE
100 AM CDT MON MAY 25 2015

NOTE: "FAIR" INDICATES FEW OR NO CLOUDS BELOW 12,000 FEET WITH NO
SIGNIFICANT WEATHER AND/OR OBSTRUCTIONS TO VISIBILITY.

...SOUTH CENTRAL NEBRASKA...

CITY           SKY/WX    TMP DP  RH WIND       PRES   REMARKS
GRAND ISLAND   MOCLDY    60  59  96 S7        29.80S
HASTINGS       PTCLDY    60  59  96 S7        29.80S
KEARNEY        MOCLDY    57  55  94 S7        29.80F
ORD            CLOUDY    58  56  93 CALM      29.79S FOG
YORK           PTCLDY    59  59 100 SW7       29.80S
AURORA         MOCLDY    62  62  99 S7        29.80S
LEXINGTON      CLOUDY    54  52  93 CALM      29.79F
HOLDREGE       CLOUDY    57  52  85 NW7       29.81S
HEBRON         PTCLDY    62  59  90 SW8       29.80F

...NEBRASKA PANHANDLE...

CITY           SKY/WX    TMP DP  RH WIND       PRES   REMARKS
CHADRON        CLOUDY    53  50  89 NE5       29.82S
ALLIANCE       CLOUDY    51  50  96 N7        29.83F
SCOTTSBLUFF    CLOUDY    54  50  86 E10       29.85S
SIDNEY         CLOUDY    51  47  86 NE8       29.84S

...WESTERN AND NORTH CENTRAL NEBRASKA...

CITY           SKY/WX    TMP DP  RH WIND       PRES   REMARKS
VALENTINE      CLOUDY    58  57  97 NE6       29.81F
AINSWORTH      CLOUDY    58  58 100 SE7       29.81S FOG
ONEILL         FOG       59  59 100 CALM      29.79F VSB 1/2
BROKEN BOW     CLOUDY    59  54  83 NW3       29.78F
IMPERIAL       CLOUDY    52  49  89 SW6       29.77F
NORTH PLATTE   CLOUDY    53  51  93 E3        29.79F
MCCOOK         HVY RAIN  54  52  93 S10       29.82R FOG

...EASTERN NEBRASKA...

CITY           SKY/WX    TMP DP  RH WIND       PRES   REMARKS
NORFOLK        FOG       55  55 100 W3        29.78S VSB 1/4
SO SIOUX CITY  CLOUDY    61  59  93 CALM      29.77S FOG
TEKAMAH        CLOUDY    63  61  93 S3        29.77S
COLUMBUS       MOCLDY    61  55  82 SW3       29.81S
ALBION         CLOUDY    57  55  94 NW6       29.80R FOG
OMAHA EPPLEY   CLOUDY    66  60  81 S5        29.77F
OFFUTT AFB     CLOUDY    62  60  94 S2        29.77F
MILLARD        CLOUDY    65  61  85 CALM      29.78F
LINCOLN        CLOUDY    61  59  93 CALM      29.79F
NEBRASKA CITY  CLOUDY    62  62  99 SW5       29.80F
BEATRICE       CLOUDY    61  60  96 CALM      29.80S
FALLS CITY     CLOUDY    62  60  93 SE5       29.80F

...NORTHERN KANSAS...

CITY           SKY/WX    TMP DP  RH WIND       PRES   REMARKS
GOODLAND       CLOUDY    52  50  93 S15       29.83R
HILL CITY      LGT RAIN  56  53  90 W7        29.82F
NORTON         RAIN      54  48  82 CALM      29.83F
PHILLIPSBURG   TSTM      59  57  94 W8G18     29.83S
SMITH CENTER   MOCLDY    61  59  94 S9        29.82S
HAYS           CLOUDY    55  48  76 S3        29.85F
RUSSELL        CLOUDY    59  58  96 S9        29.82S
CONCORDIA      MOCLDY    61  58  90 SW9       29.80F
SALINA         CLOUDY    59  57  93 S7        29.80F
TOPEKA         CLOUDY    64  61  90 CALM      29.82S



USA.gov is the U.S. government's official web portal to all federal, state and local government web resources and services.